TimeGMT,TemperatureF,Dew PointF,Humidity,Sea Level PressureIn,VisibilityMPH,Wind Direction,Wind SpeedMPH,Gust SpeedMPH,PrecipitationIn,Events,Conditions,WindDirDegrees,DateUTC
12:50 AM,30.2,26.6,86,29.98,6.2,East,3.5,-,N/A,,Mostly Cloudy,100,2013-03-30 00:50:00
2:50 AM,26.6,23.0,86,29.98,6.2,East,3.5,-,N/A,,Mostly Cloudy,80,2013-03-30 02:50:00
3:50 AM,24.8,21.2,86,29.98,6.2,Calm,Calm,-,N/A,,Partly Cloudy,0,2013-03-30 03:50:00
4:50 AM,24.8,23.0,93,29.98,6.2,Calm,Calm,-,N/A,,Partly Cloudy,0,2013-03-30 04:50:00
5:50 AM,24.8,21.2,86,29.98,6.2,Calm,Calm,-,N/A,,Partly Cloudy,0,2013-03-30 05:50:00
6:20 AM,24.8,23.0,93,29.98,6.2,East,5.8,-,N/A,,Partly Cloudy,100,2013-03-30 06:20:00
6:50 AM,26.6,23.0,86,30.01,6.2,Calm,Calm,-,N/A,,Partly Cloudy,0,2013-03-30 06:50:00
7:20 AM,28.4,24.8,86,30.01,6.2,East,5.8,-,N/A,,Partly Cloudy,90,2013-03-30 07:20:00
7:50 AM,32.0,26.6,80,30.01,6.2,East,6.9,-,N/A,,Partly Cloudy,100,2013-03-30 07:50:00
8:20 AM,33.8,28.4,81,30.01,6.2,East,5.8,-,N/A,,Partly Cloudy,100,2013-03-30 08:20:00
8:50 AM,37.4,28.4,70,30.01,6.2,East,4.6,-,N/A,,Partly Cloudy,100,2013-03-30 08:50:00
9:20 AM,39.2,28.4,65,30.01,6.2,East,6.9,-,N/A,,Partly Cloudy,100,2013-03-30 09:20:00
9:50 AM,41.0,28.4,61,30.01,6.2,East,5.8,-,N/A,,Partly Cloudy,80,2013-03-30 09:50:00
10:20 AM,42.8,28.4,57,30.01,6.2,ENE,5.8,-,N/A,,Partly Cloudy,70,2013-03-30 10:20:00
10:50 AM,42.8,28.4,57,30.01,6.2,NE,6.9,-,N/A,,Partly Cloudy,40,2013-03-30 10:50:00
11:20 AM,41.0,24.8,53,30.01,6.2,Variable,3.5,-,N/A,,Scattered Clouds,0,2013-03-30 11:20:00
11:50 AM,41.0,21.2,45,30.01,6.2,East,6.9,-,N/A,,Scattered Clouds,100,2013-03-30 11:50:00
12:20 PM,41.0,23.0,49,30.01,6.2,ENE,5.8,-,N/A,,Scattered Clouds,70,2013-03-30 12:20:00
12:50 PM,41.0,23.0,49,30.01,6.2,NNE,4.6,-,N/A,,Scattered Clouds,30,2013-03-30 12:50:00
1:20 PM,42.8,23.0,46,30.01,6.2,East,5.8,-,N/A,,Scattered Clouds,90,2013-03-30 13:20:00
1:50 PM,42.8,21.2,42,29.98,6.2,ESE,6.9,-,N/A,,Scattered Clouds,120,2013-03-30 13:50:00
2:20 PM,41.0,23.0,49,29.98,6.2,SE,8.1,-,N/A,,Scattered Clouds,140,2013-03-30 14:20:00
2:50 PM,44.6,23.0,43,29.98,6.2,Variable,2.3,-,N/A,,Scattered Clouds,0,2013-03-30 14:50:00
3:20 PM,44.6,21.2,39,29.98,6.2,SE,8.1,-,N/A,,Scattered Clouds,140,2013-03-30 15:20:00
3:50 PM,42.8,21.2,42,29.98,6.2,SE,6.9,-,N/A,,Partly Cloudy,130,2013-03-30 15:50:00
4:20 PM,42.8,21.2,42,29.98,6.2,ESE,5.8,-,N/A,,Scattered Clouds,120,2013-03-30 16:20:00
4:50 PM,42.8,21.2,42,29.98,6.2,ESE,5.8,-,N/A,,Scattered Clouds,110,2013-03-30 16:50:00
5:20 PM,41.0,21.2,45,29.98,6.2,ESE,3.5,-,N/A,,Scattered Clouds,110,2013-03-30 17:20:00
5:50 PM,41.0,19.4,42,29.98,6.2,ESE,2.3,-,N/A,,Scattered Clouds,110,2013-03-30 17:50:00
6:20 PM,41.0,23.0,49,29.98,6.2,SSE,3.5,-,N/A,,Scattered Clouds,150,2013-03-30 18:20:00
6:50 PM,39.2,23.0,52,29.98,6.2,SE,4.6,-,N/A,,Scattered Clouds,130,2013-03-30 18:50:00
7:20 PM,39.2,24.8,56,30.01,6.2,SSE,3.5,-,N/A,,Scattered Clouds,150,2013-03-30 19:20:00
7:50 PM,39.2,24.8,56,30.01,6.2,ESE,3.5,-,N/A,,Scattered Clouds,120,2013-03-30 19:50:00
8:20 PM,35.6,26.6,70,30.01,6.2,East,2.3,-,N/A,,Mostly Cloudy,90,2013-03-30 20:20:00
8:50 PM,35.6,26.6,70,30.01,6.2,East,3.5,-,N/A,,Mostly Cloudy,90,2013-03-30 20:50:00
9:20 PM,37.4,26.6,65,30.01,6.2,East,4.6,-,N/A,,Mostly Cloudy,90,2013-03-30 21:20:00
9:50 PM,37.4,28.4,70,30.01,6.2,East,4.6,-,N/A,,Mostly Cloudy,90,2013-03-30 21:50:00
10:20 PM,37.4,28.4,70,30.01,6.2,East,4.6,-,N/A,,Mostly Cloudy,100,2013-03-30 22:20:00
10:50 PM,37.4,28.4,70,30.01,6.2,East,5.8,-,N/A,,Mostly Cloudy,100,2013-03-30 22:50:00
11:20 PM,37.4,28.4,70,30.01,6.2,East,4.6,-,N/A,,Mostly Cloudy,90,2013-03-30 23:20:00
11:50 PM,35.6,28.4,75,30.01,6.2,East,4.6,-,N/A,,Mostly Cloudy,100,2013-03-30 23:50:00